Temperature
8 8 8 7 7 7 6 6 5 4 5 5 5 5 5 4 4 3 3 3 2 2 1 1 1 1 0 -0 -0 -1 -1 -1 -1 -2 -2 -1 -1 -1
8 8 7 7 7 7 6 6 5 4 4 4 4 4 3 3 3 3 2 2 2 1 1 0 0 -0 -1 -1 -1 -2 -2 -2 -2 -2 -2 -2 -2 -2
8 7 7 7 6 6 6 5 5 4 3 4 4 3 3 2 2 2 1 1 1 0 0 -0 -1 -1 -2 -2 -2 -2 -2 -3 -3 -3 -3 -3 -3 -2
8 7 7 7 6 6 5 5 4 4 3 3 3 3 2 1 1 1 0 0 -0 -1 -1 -1 -2 -2 -2 -3 -3 -3 -3 -3 -3 -3 -3 -3 -3 -3
7 7 7 6 6 5 4 4 4 3 3 2 2 2 1 1 -0 -0 -1 -1 -1 -1 -2 -2 -2 -3 -3 -3 -3 -4 -4 -4 -4 -4 -4 -4 -4 -4
7 6 6 6 5 5 4 3 3 2 2 1 1 0 0 -0 -1 -1 -1 -2 -2 -2 -2 -3 -3 -3 -4 -4 -4 -4 -4 -4 -5 -5 -5 -5 -5 -5
6 6 5 5 4 4 3 3 2 1 1 0 -0 -0 -1 -1 -2 -2 -2 -3 -3 -3 -3 -3 -4 -4 -4 -4 -5 -5 -5 -5 -5 -5 -5 -5 -5 -5
6 5 5 4 4 3 3 2 1 1 0 -0 -1 -1 -2 -2 -2 -3 -3 -4 -4 -4 -4 -4 -4 -5 -5 -5 -5 -5 -5 -5 -5 -5 -5 -5 -5 -5
5 5 4 4 3 2 2 1 1 0 -1 -1 -2 -2 -2 -3 -3 -4 -4 -4 -5 -4 -5 -5 -5 -5 -5 -5 -6 -6 -6 -6 -6 -6 -6 -6 -6 -6
4 4 3 3 2 2 1 1 0 -0 -1 -2 -2 -3 -3 -3 -4 -4 -5 -5 -5 -5 -6 -6 -6 -6 -6 -6 -6 -6 -6 -6 -6 -6 -6 -6 -6 -6
4 3 3 2 2 1 0 -0 -1 -1 -2 -2 -3 -3 -3 -4 -5 -5 -5 -6 -6 -6 -6 -7 -7 -7 -6 -6 -6 -7 -7 -7 -7 -7 -7 -7 -7 -6
3 2 2 1 1 0 -0 -1 -1 -2 -2 -3 -3 -3 -4 -5 -5 -6 -6 -6 -7 -7 -7 -8 -8 -8 -8 -7 -7 -7 -7 -7 -7 -7 -7 -7 -7 -7
2 2 1 1 -0 -1 -1 -2 -2 -2 -3 -3 -4 -4 -5 -5 -6 -6 -6 -7 -7 -8 -8 -8 -9 -9 -9 -9 -8 -7 -7 -7 -7 -7 -7 -7 -7 -7
1 1 0 -0 -1 -1 -2 -2 -3 -3 -4 -4 -5 -5 -6 -6 -6 -7 -7 -7 -8 -8 -8 -9 -9 -9 -9 -9 -9 -8 -8 -8 -8 -8 -8 -7 -7 -7
0 -0 -1 -1 -2 -2 -2 -3 -3 -4 -5 -5 -6 -6 -6 -7 -7 -7 -7 -8 -8 -8 -8 -9 -9 -9 -9 -10 -10 -9 -9 -8 -8 -8 -8 -8 -8 -7
-0 -1 -1 -2 -2 -3 -3 -3 -4 -5 -5 -6 -6 -7 -7 -7 -8 -8 -8 -8 -9 -8 -9 -9 -9 -9 -9 -9 -9 -9 -9 -9 -9 -8 -8 -8 -8 -8
-1 -1 -2 -2 -3 -3 -4 -5 -5 -6 -6 -7 -7 -7 -8 -8 -8 -9 -9 -9 -9 -9 -9 -9 -9 -9 -9 -9 -9 -9 -9 -9 -9 -9 -9 -8 -7 -8
-2 -2 -3 -3 -4 -4 -5 -6 -6 -7 -7 -7 -8 -8 -8 -9 -9 -9 -9 -10 -10 -10 -10 -10 -10 -9 -9 -9 -9 -9 -9 -9 -9 -9 -9 -9 -8 -7
-3 -3 -4 -4 -5 -5 -6 -6 -7 -7 -7 -8 -8 -9 -9 -9 -9 -10 -10 -10 -10 -10 -10 -10 -10 -10 -10 -10 -9 -9 -10 -9 -9 -9 -9 -9 -8 -7
-3 -4 -4 -5 -5 -6 -6 -7 -7 -7 -8 -8 -9 -9 -9 -10 -10 -10 -10 -11 -11 -11 -10 -10 -10 -11 -11 -11 -10 -9 -9 -10 -10 -9 -9 -8 -8 -7
-4 -4 -5 -5 -6 -6 -7 -7 -8 -8 -8 -9 -9 -9 -10 -10 -10 -11 -11 -11 -11 -11 -11 -11 -11 -11 -11 -10 -10 -9 -9 -9 -9 -10 -9 -9 -8 -8
-5 -5 -5 -6 -6 -7 -7 -8 -8 -8 -9 -9 -9 -10 -10 -10 -11 -11 -11 -11 -11 -11 -11 -11 -11 -11 -11 -11 -10 -10 -9 -9 -8 -9 -9 -9 -9 -9
-5 -6 -6 -6 -7 -7 -8 -8 -8 -9 -9 -9 -10 -10 -11 -11 -11 -11 -11 -11 -11 -11 -11 -11 -11 -11 -11 -10 -10 -10 -10 -9 -9 -8 -8 -8 -9 -9
Wind_Speed
7 7 6 5 5 5 5 5 5 7 7 5 4 4 5 7 10 10 11 14 17 18 19 19 20 21 21 22 22 22 23 23 23 23 24 24 24 24
6 7 7 5 5 5 5 5 6 6 8 4 4 4 5 6 10 9 9 13 16 18 20 20 21 21 21 21 22 23 23 24 24 24 24 25 25 25
7 7 8 6 5 5 5 5 5 5 9 7 4 4 4 5 6 7 8 9 11 17 20 21 21 21 21 22 23 23 23 24 24 24 24 24 24 24
8 7 8 6 7 5 5 6 6 6 7 9 5 4 5 5 5 5 6 8 9 15 19 20 21 21 21 22 23 23 23 23 23 23 24 24 24 24
7 8 7 7 7 6 6 6 6 6 5 6 7 4 4 4 4 5 6 5 9 13 17 18 19 21 21 22 23 23 23 23 23 23 24 24 24 24
6 6 7 7 8 7 6 6 5 5 4 5 6 5 4 4 3 5 6 5 6 9 12 15 17 20 21 22 22 22 22 22 23 23 23 22 22 23
5 5 6 7 7 6 5 4 4 4 4 5 6 5 5 4 4 4 6 6 6 6 5 7 8 8 11 17 19 21 22 22 22 22 22 22 22 22
5 4 5 5 6 7 8 8 7 6 5 5 6 6 7 5 5 5 5 6 6 3 4 7 5 6 6 9 17 21 22 22 21 21 21 21 21 21
5 4 3 3 4 3 6 8 8 9 9 7 6 7 6 5 5 6 6 6 7 5 5 7 5 6 7 13 19 21 21 21 21 21 20 20 20 19
4 3 3 3 3 3 3 4 5 5 6 5 5 6 6 5 5 6 6 6 6 5 4 7 5 6 8 9 17 19 19 20 20 20 21 20 19 19
3 2 3 3 5 5 3 4 4 5 7 9 10 9 11 11 9 4 4 5 6 5 3 4 4 6 6 6 10 16 18 20 21 21 21 20 19 18
2 2 4 4 6 6 3 3 5 5 4 5 6 7 7 7 10 4 3 4 5 4 2 3 4 4 5 4 4 8 11 16 20 20 20 19 19 11
2 2 3 5 6 7 6 4 7 6 3 3 3 4 3 3 3 3 3 3 5 6 4 3 4 4 4 6 6 5 6 7 9 12 16 18 18 13
2 2 2 5 6 7 6 6 8 6 2 2 3 3 3 3 3 3 4 5 6 7 7 5 4 5 6 8 7 6 6 7 6 6 6 13 15 17
2 3 4 6 6 4 5 7 5 2 1 2 3 3 3 3 3 3 4 5 6 7 8 7 6 6 6 8 8 7 8 7 5 5 6 7 7 7
1 2 4 5 3 4 4 3 2 2 2 3 3 3 3 3 3 3 3 4 4 5 6 8 7 6 7 8 8 9 8 6 6 7 7 7 7 6
1 1 1 1 1 1 1 2 1 1 2 2 2 3 3 3 4 3 3 4 4 5 5 5 6 7 7 8 8 9 8 7 7 7 8 9 8 7
1 2 2 2 2 2 2 2 2 2 2 2 3 3 3 4 4 4 4 4 5 6 5 5 5 5 4 5 8 8 7 7 7 7 7 8 9 8
2 2 3 3 3 2 2 2 3 3 2 2 3 3 3 3 4 5 5 5 5 5 5 4 4 4 7 8 6 6 6 8 8 7 6 7 9 10
2 2 3 3 2 2 2 2 2 2 2 2 3 3 3 4 4 5 5 5 6 6 5 4 4 5 6 7 6 7 10 8 7 8 8 7 7 10
2 2 3 2 2 2 2 2 3 3 3 3 3 3 3 4 5 5 5 8 7 5 6 6 6 10 5 4 6 6 6 10 11 8 8 7 7 6
3 3 3 3 2 3 3 3 3 3 3 3 3 3 3 4 5 5 5 5 5 5 6 6 6 5 3 5 8 8 8 8 10 13 11 9 5 4
3 3 3 3 2 2 2 3 3 4 4 3 4 3 3 4 4 4 5 5 5 6 6 6 5 4 4 5 6 7 9 8 7 7 7 11 13 13
Wind_Direction
212 215 221 222 216 219 219 213 233 267 270 248 247 246 248 247 251 250 249 259 268 273 277 281 284 287 289 291 292 293 293 293 293 293 292 291 292 292
209 213 222 223 218 216 219 223 222 238 264 254 249 259 258 265 266 262 256 268 272 277 280 283 286 288 289 290 292 292 292 292 292 292 291 291 291 291
211 214 222 218 218 219 218 222 227 229 259 271 260 272 269 273 282 272 272 275 277 281 284 287 289 288 289 291 292 292 292 292 293 292 291 291 292 291
215 215 224 219 219 219 218 224 231 229 244 269 275 273 271 270 270 274 284 281 281 285 288 289 290 292 292 293 293 293 293 294 293 292 292 291 292 292
214 216 220 215 224 225 223 226 233 243 242 261 277 276 275 280 284 285 282 284 289 290 291 291 293 295 296 296 295 295 295 294 293 293 292 292 291 291
218 217 218 217 223 225 228 229 232 241 249 261 273 280 278 284 285 282 287 277 284 291 289 292 296 298 298 297 297 297 296 295 295 294 293 293 292 291
223 222 224 227 230 231 235 228 226 238 248 259 270 279 277 281 274 273 282 286 279 272 282 288 294 290 294 296 298 298 298 298 297 296 296 295 293 292
228 232 230 225 237 249 256 255 245 241 244 251 262 266 272 272 277 283 288 295 292 276 287 288 283 284 285 289 295 298 299 298 297 298 297 296 296 295
222 225 238 233 236 232 256 262 261 263 263 260 260 262 271 272 278 282 276 275 277 281 293 286 281 284 289 298 299 299 301 302 301 300 299 299 298 298
214 212 220 229 234 234 233 246 253 259 266 266 253 258 265 268 263 270 275 283 280 281 283 284 288 286 294 295 296 299 305 307 307 306 304 301 300 300
212 206 211 223 250 259 249 253 266 272 283 285 286 286 291 295 298 301 302 301 297 292 273 278 292 301 290 280 292 304 310 311 309 307 306 305 304 303
207 214 239 249 261 266 247 245 262 268 275 288 290 293 292 292 296 289 274 286 295 294 287 300 294 311 302 280 285 305 308 309 310 309 308 307 306 307
208 220 235 262 271 276 276 254 267 282 273 276 281 283 285 284 287 283 265 255 270 273 285 300 293 290 277 296 299 293 296 304 310 307 309 308 308 308
211 212 234 270 281 284 285 281 289 300 300 288 285 284 285 285 280 276 276 268 259 263 273 273 275 282 289 293 294 298 305 302 299 298 303 309 309 306
222 249 268 280 288 284 285 290 299 295 278 285 287 286 280 278 283 290 292 292 289 286 288 282 274 280 276 284 291 296 306 303 291 301 307 304 299 300
235 255 278 291 295 286 288 297 294 263 273 266 275 281 293 295 293 294 294 296 293 292 289 286 277 272 278 278 283 290 292 291 305 308 305 299 294 291
187 188 223 246 241 268 277 269 263 285 290 279 278 286 295 298 298 298 293 295 288 292 298 295 288 277 264 271 279 280 285 289 292 302 306 303 295 288
231 210 229 233 238 246 260 276 275 270 268 273 280 284 289 293 298 301 297 290 289 292 294 298 308 309 303 279 252 269 279 286 295 298 299 300 299 296
231 219 234 241 245 247 250 258 267 267 263 267 272 278 286 293 298 301 302 297 292 291 293 298 305 306 309 309 290 266 284 298 301 299 295 294 295 298
215 223 233 238 240 242 248 263 269 275 273 274 273 274 277 285 290 293 295 293 294 297 299 298 294 291 289 293 292 292 293 290 297 300 300 295 287 290
223 228 230 231 236 239 243 251 256 264 267 270 271 270 270 277 283 286 290 297 299 298 299 298 292 304 293 285 291 291 287 296 302 300 301 303 304 300
223 227 230 230 231 233 237 245 257 265 268 268 269 269 271 273 279 284 287 290 290 289 291 293 295 299 287 288 296 300 301 305 310 311 305 297 299 301
223 225 229 230 231 233 237 245 253 261 261 260 265 268 268 272 276 280 283 285 289 292 297 300 304 297 286 285 293 297 300 307 314 317 310 315 312 302
Height
1485 1485 1485 1484 1484 1484 1483 1482 1480 1474 1470 1471 1471 1470 1469 1467 1465 1463 1462 1460 1458 1456 1454 1452 1449 1446 1444 1441 1439 1437 1434 1432 1430 1428 1426 1424 1422 1421
1479 1479 1478 1478 1478 1477 1476 1475 1474 1471 1465 1463 1464 1463 1462 1460 1459 1457 1455 1453 1451 1449 1447 1445 1442 1439 1437 1434 1432 1429 1427 1424 1422 1420 1418 1416 1415 1413
1472 1472 1472 1471 1471 1470 1469 1468 1467 1465 1460 1457 1458 1457 1455 1454 1452 1450 1448 1446 1444 1442 1440 1438 1435 1432 1430 1427 1424 1422 1419 1417 1415 1412 1410 1408 1407 1405
1466 1466 1465 1465 1464 1463 1462 1461 1460 1459 1456 1451 1450 1450 1448 1447 1445 1443 1441 1438 1436 1435 1433 1430 1428 1425 1423 1420 1417 1415 1412 1409 1407 1405 1402 1401 1399 1397
1460 1459 1459 1458 1457 1456 1455 1454 1453 1452 1450 1447 1443 1443 1441 1440 1438 1435 1434 1431 1429 1427 1425 1423 1421 1418 1415 1413 1410 1407 1404 1402 1399 1397 1395 1393 1391 1389
1453 1453 1452 1452 1451 1450 1449 1448 1446 1445 1443 1441 1438 1436 1435 1433 1431 1428 1426 1424 1422 1420 1418 1416 1413 1411 1408 1405 1403 1400 1397 1395 1392 1390 1387 1385 1383 1381
1447 1446 1446 1445 1444 1444 1443 1441 1440 1438 1437 1435 1432 1430 1428 1427 1425 1422 1419 1416 1414 1413 1410 1408 1406 1403 1400 1398 1395 1393 1390 1388 1385 1383 1380 1378 1376 1374
1440 1440 1439 1439 1438 1437 1436 1435 1434 1433 1431 1429 1426 1424 1422 1421 1419 1417 1414 1410 1406 1406 1403 1400 1399 1395 1393 1390 1388 1386 1383 1381 1378 1376 1373 1371 1369 1367
1434 1433 1433 1432 1431 1431 1430 1429 1428 1427 1426 1424 1421 1419 1417 1415 1413 1410 1408 1405 1402 1400 1397 1392 1391 1388 1386 1383 1381 1379 1377 1374 1372 1369 1367 1364 1362 1360
1428 1428 1427 1426 1425 1425 1423 1422 1421 1420 1419 1417 1416 1413 1412 1410 1408 1405 1402 1399 1396 1395 1392 1387 1384 1381 1379 1377 1375 1373 1371 1368 1365 1363 1360 1358 1356 1354
1422 1422 1422 1421 1420 1419 1418 1416 1415 1414 1413 1411 1410 1408 1406 1404 1402 1400 1397 1394 1390 1388 1387 1383 1379 1375 1372 1370 1369 1367 1364 1362 1359 1356 1354 1352 1350 1348
1416 1416 1416 1415 1414 1413 1412 1411 1409 1407 1406 1405 1403 1401 1400 1398 1397 1395 1392 1389 1386 1383 1381 1379 1375 1372 1366 1364 1363 1361 1358 1355 1353 1350 1348 1346 1344 1342
1410 1410 1410 1410 1409 1408 1407 1405 1404 1402 1400 1399 1397 1395 1394 1392 1391 1389 1388 1386 1383 1380 1378 1375 1371 1369 1366 1361 1357 1356 1353 1350 1347 1345 1343 1341 1339 1337
1405 1405 1405 1404 1403 1402 1401 1400 1399 1397 1395 1393 1392 1390 1388 1387 1385 1384 1382 1381 1378 1376 1374 1371 1368 1365 1362 1357 1353 1350 1348 1346 1343 1340 1338 1336 1334 1332
1400 1400 1399 1399 1398 1397 1396 1395 1394 1392 1390 1389 1387 1385 1384 1382 1381 1379 1377 1375 1373 1371 1369 1367 1364 1361 1359 1355 1351 1347 1344 1341 1339 1337 1334 1331 1329 1326
1395 1394 1394 1393 1392 1391 1391 1390 1388 1387 1386 1384 1383 1381 1380 1378 1376 1374 1372 1370 1367 1365 1364 1362 1360 1357 1354 1351 1348 1344 1341 1338 1335 1333 1330 1327 1325 1322
1390 1389 1389 1388 1387 1386 1385 1384 1384 1383 1382 1380 1379 1377 1375 1374 1372 1370 1368 1366 1363 1361 1359 1357 1355 1353 1350 1347 1344 1341 1338 1335 1332 1329 1326 1322 1320 1318
1385 1384 1384 1383 1382 1382 1381 1380 1379 1379 1377 1376 1375 1373 1371 1370 1368 1366 1364 1362 1360 1357 1355 1353 1351 1348 1345 1342 1341 1337 1334 1331 1329 1326 1323 1319 1315 1313
1380 1379 1379 1379 1378 1378 1377 1376 1375 1374 1373 1372 1370 1369 1368 1366 1364 1362 1360 1359 1356 1354 1352 1351 1348 1346 1343 1339 1336 1335 1332 1328 1325 1322 1319 1316 1312 1309
1375 1375 1375 1375 1374 1373 1373 1372 1371 1370 1369 1367 1366 1365 1364 1362 1360 1359 1357 1355 1353 1351 1349 1348 1346 1344 1341 1339 1334 1331 1330 1326 1322 1319 1315 1312 1309 1307
1371 1371 1371 1370 1370 1369 1368 1368 1367 1365 1364 1363 1362 1361 1359 1358 1357 1355 1354 1352 1351 1348 1346 1344 1343 1342 1339 1336 1332 1328 1326 1324 1321 1317 1313 1309 1306 1303
1366 1366 1366 1366 1365 1364 1364 1363 1362 1361 1360 1359 1357 1356 1355 1354 1353 1352 1350 1349 1347 1346 1344 1342 1340 1338 1336 1333 1329 1326 1322 1320 1318 1315 1312 1309 1306 1302
1362 1362 1362 1361 1361 1360 1359 1358 1357 1356 1355 1354 1353 1352 1351 1350 1349 1348 1347 1346 1344 1343 1341 1339 1337 1335 1333 1331 1328 1324 1321 1317 1314 1312 1309 1307 1304 1302